Kezdőlap
METAR-TAF:

METAR-TAF

Repülőterek :

Webster City Municipal Airport

Webster City, Iowa, Amerikai Egyesült Államok

földrajzi szélesség: 42-26N, földrajzi hosszúság: 093-52W, magasság: 342 m

Jelenlegi meteorológiai megfigyelések

A jelentés 27 perccel ezelõtt készült, 15:15 UTC
Északnyugati szél 18 kt
Hőmérséklet 10°C
Páratartalom 71%
Légköri nyomás 1022 hPa
Látótávolság: 16.1 km
Borult 2500 lábon

METAR: KEBS 011515Z AUTO 32018KT 10SM OVC025 10/05 A3018 RMK AO2

Idő: 10:42 (15:42 UTC)


TAF: hiányzik

Meteorológiai megfigyelések és előrejelzések több, mint 4000 repülőtéren (METAR és TAF jelentéseket).

A térképen piros és sárga pontok jelzik az elérhető meteorológiai állomásokat.

Mozgassa az egeret a pont fölött, hogy megjelenjen az állomás neve.

Azután kattintson az időjárási megfigyelések és előrejelzések megtekintéséhez.

A térkép megváltoztatása: kattintson a fekete keresztel jelölt zöld gombra ráközelítéshez, a vonallal jelölt zöld gombra távolításhoz, vagy a zöld nyilakra a szomszédos térképek eléréséhez.


METAR-TAF: